Puyallup, WA
on Friday, November 16, 2012

Friday
Previous Day Next Day
Daily Summary
 ActualAverage (KSEA)Record (KSEA)
Temperature
Mean Temperature °F 45°F  
Max Temperature 44°F 51°F 68°F (1965)
Min Temperature 32°F 40°F 21°F (1955)
Degree Days
Heating Degree Days 27 20  
Month to date heating degree days 288  
Since 1 July heating degree days 885  
Cooling Degree Days 0 0  
Month to date cooling degree days 0  
Year to date cooling degree days 189  
Moisture
Dew Point 34°F   
Average Humidity 100    
Maximum Humidity 100    
Minimum Humidity 100    
Precipitation
Precipitation 0.00 in 0.23 in 1.08 in (1988)
Month to date precipitation 3.42  
Year to date precipitation 28.99  
Snow
Snow 0.00 in in T in (1994)
Month to date snowfall  
Since 1 July snowfall  
Snow Depth in   
Wind
Wind Speed 0 mph   
Max Wind Speed 0 mph   
Max Gust Speed mph   
Visibility 2 miles   
Events Fog   

Key: T is trace of precipitation, MM is missing value
Source: NWS Daily Summary
Time(PST)TemperatureDew PointHumidity Pressure Visibility Wind DirectionWind SpeedGust SpeedPrecipitationEvents Conditions
12:15 AM 35.6°F 35.6°F 100% 29.95 in 0.2 miles Calm Calm - N/A Fog Fog
12:35 AM 33.8°F 33.8°F 100% 29.94 in 0.2 miles Calm Calm - N/A Fog Fog
12:55 AM 33.8°F 33.8°F 100% 29.94 in 0.2 miles Calm Calm - N/A Fog Fog
1:15 AM 32.0°F 32.0°F 100% 29.94 in 0.2 miles Calm Calm - N/A Fog Fog
1:35 AM 32.0°F 32.0°F 100% 29.94 in 0.2 miles Calm Calm - N/A Fog Fog
1:55 AM 32.0°F 32.0°F 100% 29.94 in 0.2 miles Calm Calm - N/A Fog Fog
2:15 AM 32.0°F 32.0°F 100% 29.93 in 0.2 miles Calm Calm - N/A Fog Fog
2:35 AM 32.0°F 32.0°F 100% 29.93 in 0.2 miles Calm Calm - N/A Fog Fog
2:55 AM 32.0°F 32.0°F 100% 29.92 in 0.2 miles Calm Calm - N/A Fog Fog
3:15 AM 32.0°F 32.0°F 100% 29.92 in 0.2 miles Calm Calm - N/A Fog Fog
3:35 AM 32.0°F 32.0°F 100% 29.91 in 0.2 miles Calm Calm - N/A Fog Light Freezing Fog
3:55 AM 32.0°F 32.0°F 100% 29.91 in 0.2 miles Calm Calm - N/A Fog Light Freezing Fog
4:15 AM 32.0°F 32.0°F 100% 29.91 in 0.5 miles Calm Calm - N/A Fog Light Freezing Fog
4:35 AM 32.0°F 32.0°F 100% 29.91 in 0.2 miles Calm Calm - N/A Fog Light Freezing Fog
4:55 AM 32.0°F 32.0°F 100% 29.91 in 0.2 miles Calm Calm - N/A Fog Light Freezing Fog
5:15 AM 32.0°F 32.0°F 100% 29.91 in 3.0 miles Calm Calm - N/A   Partly Cloudy
5:35 AM 32.0°F 32.0°F 100% 29.92 in 8.0 miles Calm Calm - N/A   Clear
5:55 AM 32.0°F 32.0°F 100% 29.91 in 8.0 miles Calm Calm - N/A   Clear
6:15 AM 32.0°F 32.0°F 100% 29.91 in 5.0 miles Calm Calm - N/A   Clear
6:35 AM 32.0°F 32.0°F 100% 29.91 in 7.0 miles Calm Calm - N/A   Clear
6:55 AM 32.0°F 32.0°F 100% 29.91 in 7.0 miles Calm Calm - N/A   Clear
7:15 AM 33.8°F 33.8°F 100% 29.91 in 4.0 miles Calm Calm - N/A   Clear
7:35 AM 33.8°F 33.8°F 100% 29.91 in 1.8 miles Calm Calm - N/A   Clear
7:55 AM 35.6°F 35.6°F 100% 29.91 in 4.0 miles Calm Calm - N/A   Clear
8:15 AM 35.6°F 35.6°F 100% 29.91 in 4.0 miles Calm Calm - N/A   Clear
8:35 AM 37.4°F 37.4°F 100% 29.90 in 6.0 miles Calm Calm - N/A   Clear
4:15 PM 44.6°F 44.6°F 100% 29.80 in - Calm Calm - N/A   Unknown
4:35 PM 44.6°F 44.6°F 100% 29.79 in 5.0 miles Calm Calm - N/A   Scattered Clouds
Moon Phase
Nov. 16 Nov. 20 Nov. 28 Dec. 06 Dec. 13
Sunrise:07:15 AM (PST) Moon Rise:10:17 AM (PST)11/16
Sunset:04:32 PM (PST) Moon Set:07:36 PM (PST)11/16

Copyright © 2014 The Weather Underground, Inc.